EHI
29 26 22 19 17 18 19 19 17 15 15 17 21 21 18 17 16 15 12 11 10 10 10 9 8 6 6 6 5 4 3 1 1 1 1 1 1 0 0 0 0 0 0
33 30 26 22 21 22 23 22 20 18 19 21 23 22 20 19 18 17 15 12 11 11 10 9 7 5 5 6 6 5 3 2 1 1 1 0 0 0 0 0 0 0 0
39 37 32 28 25 25 26 27 26 25 26 27 27 25 22 20 18 18 16 14 12 10 9 8 6 5 4 5 5 4 3 2 1 0 0 0 0 0 0 0 0 0 0
42 41 37 34 31 30 31 31 31 32 32 31 28 25 22 19 16 15 16 14 11 8 6 5 4 3 3 4 4 3 2 1 1 0 0 0 0 0 0 0 0 0 0
43 44 43 40 40 38 35 33 32 33 33 29 26 23 21 18 14 13 12 11 9 7 5 3 2 2 3 4 4 3 2 1 1 0 0 0 0 0 0 0 0 0 0
47 47 44 43 44 43 39 33 31 30 29 26 23 22 21 18 14 10 8 7 7 7 5 3 2 3 4 5 4 3 2 2 1 1 1 1 1 1 1 0 0 0 0
47 45 42 42 44 45 41 34 30 28 26 24 22 20 19 17 11 8 7 6 6 7 6 4 4 4 3 3 4 3 2 1 1 1 1 2 2 2 2 1 0 0 0
41 40 40 42 43 44 41 34 28 26 24 23 21 19 16 12 8 6 6 6 6 6 5 4 4 4 3 2 2 2 2 2 1 0 1 2 2 2 2 1 0 0 0
38 37 38 41 41 41 38 31 26 24 23 23 23 20 16 11 7 4 4 4 5 5 4 3 3 3 3 1 1 1 1 2 1 0 0 1 1 1 1 1 0 0 0
34 34 36 38 37 36 32 28 25 24 23 24 24 22 19 16 10 3 1 3 4 5 3 1 1 1 2 2 1 0 0 1 1 0 0 0 0 0 0 0 0 0 0
27 29 31 32 32 30 27 25 25 25 25 24 23 22 21 19 12 4 1 2 4 5 3 1 0 0 1 1 1 0 0 0 0 0 0 0 0 0 0 0 0 0 0
23 23 24 24 24 24 23 23 25 27 26 23 21 22 21 18 12 5 1 1 3 4 2 0 0 0 0 0 0 0 0 0 0 0 0 0 0 0 0 0 0 0 0
19 18 17 18 19 20 20 22 24 26 24 22 21 21 19 15 12 7 2 0 1 2 1 0 0 0 0 0 0 0 0 0 0 0 0 0 0 0 0 0 0 0 0
15 15 14 16 17 17 18 20 22 23 23 22 21 20 18 14 12 10 5 1 0 0 0 0 0 0 0 0 0 0 0 0 0 0 0 0 0 0 0 0 0 0 0
13 13 13 13 14 14 16 17 18 18 18 18 19 18 16 14 11 9 6 3 1 0 0 0 0 0 0 0 0 0 0 0 0 0 0 0 0 0 0 0 0 0 0
11 12 12 11 11 13 14 13 12 10 8 9 12 13 11 10 8 5 3 2 1 0 0 0 0 1 1 0 0 0 0 0 0 0 0 0 0 0 0 0 0 0 0
11 11 10 9 9 10 11 10 8 5 3 2 4 4 4 4 3 1 0 1 1 0 0 1 1 2 2 1 1 0 0 0 0 0 0 0 0 0 0 0 0 0 0
10 9 7 7 7 7 7 7 6 5 3 2 1 0 0 1 0 0 0 1 1 1 1 2 3 3 3 3 2 1 1 0 0 0 0 0 0 0 0 0 0 0 0
6 5 5 4 4 5 5 5 5 4 2 2 2 1 0 0 0 0 0 1 2 2 2 3 3 3 3 3 3 3 2 1 0 0 0 0 0 0 0 0 0 0 0
4 4 4 4 4 4 5 5 4 3 1 1 2 1 0 0 0 0 1 1 2 2 2 3 3 3 3 3 3 3 3 2 1 1 0 0 0 0 0 0 0 0 0
4 5 5 6 6 6 6 6 5 4 2 1 1 1 0 0 0 1 1 1 1 1 2 3 3 3 3 3 3 3 3 3 3 2 1 1 1 0 0 0 0 0 0
5 5 6 6 6 6 6 6 5 4 2 1 0 0 0 0 0 1 1 2 2 1 1 2 3 3 3 3 3 4 4 3 3 3 3 2 2 1 0 0 0 0 0
6 6 6 6 6 5 5 5 4 3 3 1 0 0 0 0 0 0 1 2 3 1 0 1 1 2 3 3 4 4 4 4 3 3 3 3 3 2 1 1 0 0 0
6 6 6 6 5 4 4 4 3 3 3 2 0 0 0 0 0 0 1 2 3 2 1 0 0 1 1 2 3 4 4 3 3 3 3 3 3 2 2 2 1 0 0
4 5 5 4 4 3 3 3 3 3 2 1 0 0 0 0 0 0 0 1 2 3 2 1 1 0 0 1 2 3 3 3 2 3 3 3 3 2 1 2 2 1 1
3 5 5 4 3 3 3 3 3 2 1 0 0 0 0 0 0 0 0 0 1 3 3 2 2 1 0 0 1 3 3 2 1 2 3 3 3 2 1 1 2 2 2
Wind_Speed
8 7 7 6 6 5 4 5 4 4 4 4 4 4 4 3 3 3 3 3 3 3 2 3 3 2 2 1 2 2 2 3 3 1 1 1 2 2 2 2 1 1 1
8 7 7 6 5 5 5 5 4 4 4 4 4 4 4 4 4 4 4 3 4 3 3 2 3 2 2 2 2 2 2 3 3 3 1 1 2 3 3 3 2 2 1
8 7 7 6 6 6 6 5 4 4 4 3 4 4 4 4 4 4 4 4 4 4 4 3 3 2 2 2 2 2 2 2 2 3 3 1 1 2 2 1 1 1 2
8 8 8 8 7 6 5 4 4 4 4 4 4 4 4 3 3 3 3 3 3 3 3 3 4 4 4 4 3 3 3 3 3 3 3 2 2 2 2 2 1 1 2
8 8 8 7 5 5 4 4 4 4 4 3 3 3 3 3 3 4 4 4 3 2 2 3 3 4 5 4 3 3 4 3 3 3 3 2 2 3 3 3 3 1 1
8 8 7 6 5 5 5 4 4 3 3 3 3 3 3 3 3 4 4 3 3 3 3 3 3 3 3 4 4 5 7 6 6 4 3 4 5 5 4 4 3 2 2
6 6 6 6 6 6 5 4 4 3 2 2 2 2 3 3 4 4 5 4 3 3 3 2 2 1 2 2 2 3 5 7 9 7 6 6 6 6 6 5 5 4 4
6 5 5 6 6 5 5 5 4 3 3 3 2 2 3 3 4 5 5 3 2 2 3 3 3 2 2 2 2 2 3 4 7 6 6 7 6 6 7 7 6 4 2
5 5 5 5 5 5 5 5 4 3 2 3 3 3 3 3 5 5 5 2 2 2 2 3 3 3 3 3 3 3 3 3 4 6 6 6 6 7 7 4 4 3 2
4 4 4 4 5 5 5 4 3 3 3 3 2 3 4 4 5 5 6 3 2 2 2 2 3 3 4 5 4 4 4 4 3 2 3 3 4 6 8 7 6 5 3
3 3 3 3 3 4 4 3 3 3 3 3 2 2 3 4 4 5 6 3 3 3 2 2 2 4 4 5 5 5 6 4 3 3 2 2 2 3 5 5 6 6 5
3 3 2 2 2 2 3 3 3 4 3 3 2 2 1 2 3 4 6 5 4 4 3 3 3 4 5 5 5 5 5 3 2 2 2 2 3 4 4 5 5 6 6
3 2 2 2 2 1 2 3 2 2 2 2 2 2 2 1 2 4 5 6 5 3 3 4 4 4 5 4 5 5 4 2 2 3 4 4 4 4 2 2 2 3 3
3 2 2 2 1 1 0 1 2 3 3 2 3 2 2 2 2 2 2 3 4 3 2 3 3 3 3 3 3 3 3 3 4 4 4 3 2 2 2 2 3 2 2
2 2 2 1 1 1 1 1 1 2 3 4 4 3 3 3 5 5 4 3 3 3 2 1 1 1 1 2 2 2 2 2 4 4 3 3 3 3 3 3 3 3 3
2 2 2 2 1 1 1 1 3 1 1 1 3 3 3 4 4 4 5 5 5 4 3 2 2 3 3 3 3 3 3 3 4 4 3 4 4 4 3 2 3 4 5
3 3 2 2 2 2 2 2 1 2 4 3 0 2 2 3 3 3 3 3 4 5 3 3 3 4 4 4 3 3 4 4 3 3 4 4 3 3 3 3 3 4 4
2 2 3 3 3 3 3 2 2 2 1 1 2 2 2 2 2 2 3 3 1 2 3 4 4 4 4 4 4 4 3 3 3 3 3 3 4 4 3 4 4 4 4
2 1 2 2 2 2 2 2 2 2 2 1 1 2 2 2 1 1 2 2 3 4 4 4 4 3 3 4 4 3 3 3 3 3 3 4 4 3 4 4 4 4 4
2 3 3 2 2 2 2 2 2 2 2 2 2 2 1 0 0 1 2 2 3 3 3 3 4 3 3 3 3 3 3 3 3 3 3 3 3 3 4 5 4 4 4
1 2 2 2 2 2 2 2 2 2 2 2 2 3 3 2 2 2 2 3 3 3 3 3 3 3 3 3 3 3 3 3 3 4 4 4 4 4 4 4 4 4 4
1 1 1 2 2 2 2 2 2 2 2 1 1 1 2 1 1 2 2 2 3 3 3 3 3 3 3 3 3 3 3 4 4 4 4 4 4 4 3 3 3 3 4
1 1 1 1 1 2 1 1 1 1 1 1 1 1 1 1 2 2 2 2 2 2 2 2 2 2 3 3 3 4 4 5 4 4 4 4 4 4 4 4 4 4 4
1 1 1 1 1 2 2 1 1 1 1 0 0 0 0 1 1 2 2 2 2 2 2 2 2 3 3 3 2 3 3 4 4 4 5 4 4 4 4 3 4 5 5
2 2 2 2 2 2 2 1 1 1 1 1 1 1 1 1 1 2 2 2 2 2 2 2 2 2 4 4 3 3 4 4 4 4 4 4 4 4 4 4 4 4 4
2 2 2 2 2 2 2 2 1 2 1 1 1 1 1 1 1 2 2 2 2 2 2 2 2 3 3 3 4 4 3 4 4 4 4 3 4 4 4 4 4 4 4
Wind_Direction
190 190 191 192 193 193 198 199 196 196 187 185 186 180 181 187 184 180 195 193 192 210 213 202 221 213 203 208 186 176 169 154 172 218 192 162 148 151 144 139 137 145 174
192 189 193 192 188 193 201 202 196 198 196 192 189 186 192 192 187 187 198 194 195 207 216 205 228 219 207 213 193 190 187 172 162 181 186 168 167 170 158 158 161 161 176
187 186 190 191 190 196 200 198 195 192 195 195 192 193 198 195 192 196 195 195 201 209 207 202 221 212 219 216 207 199 189 173 156 160 173 170 149 148 133 161 161 159 196
183 183 190 195 196 197 194 190 183 180 182 195 204 198 196 193 191 197 191 185 203 219 214 205 209 209 210 207 199 196 180 158 154 153 158 165 162 152 145 168 191 212 215
179 184 192 190 185 179 178 182 180 182 185 190 188 195 199 194 196 193 192 190 198 214 231 223 218 211 208 203 193 188 172 164 160 162 170 166 175 168 188 186 192 205 233
176 187 186 178 177 180 182 181 178 181 184 178 183 190 200 214 205 195 190 193 194 199 222 240 235 218 214 207 200 187 176 173 176 175 182 191 202 195 180 181 176 174 234
176 181 177 176 178 183 180 175 181 181 173 184 196 190 201 215 187 177 183 175 188 203 210 217 231 224 197 199 210 198 195 192 183 180 188 202 199 195 181 188 192 192 211
172 182 180 176 182 183 177 181 182 174 176 192 203 203 203 208 186 179 178 173 185 207 209 201 202 216 213 198 209 218 222 214 203 195 201 210 205 192 189 193 193 197 218
175 185 187 182 181 180 185 187 179 167 175 196 193 197 207 224 198 185 175 173 194 220 217 205 200 202 224 201 195 216 237 247 227 210 209 213 207 192 176 159 166 172 212
177 180 176 177 180 185 187 178 171 172 190 195 192 199 202 211 203 184 173 172 196 227 246 235 212 204 215 203 196 206 223 237 222 221 225 229 218 205 191 187 185 186 194
158 142 148 162 178 177 168 168 165 171 175 184 197 207 206 212 207 189 179 183 196 207 224 237 243 234 223 215 208 213 224 218 206 207 213 220 221 219 213 206 199 192 195
124 119 129 139 156 145 145 161 162 165 176 191 194 212 226 226 209 209 203 209 206 200 216 225 236 234 229 224 222 232 223 204 186 189 203 216 221 228 229 221 213 212 214
116 127 121 111 117 124 153 159 153 165 178 194 194 212 235 237 233 228 217 217 214 213 225 224 230 231 229 234 237 232 216 199 191 206 220 227 226 227 224 224 236 232 240
133 127 100 98 83 70 98 161 162 178 189 194 202 216 226 234 237 230 227 226 224 230 243 243 234 229 229 239 245 237 218 207 203 218 226 231 222 210 212 207 212 214 232
136 130 120 112 111 91 66 71 181 211 208 198 206 198 199 224 237 222 201 210 214 217 205 223 237 240 250 255 248 237 224 214 220 226 221 221 222 220 225 216 205 201 215
155 155 149 146 143 146 134 48 24 24 1 198 189 185 220 237 234 213 209 207 201 185 167 208 230 229 230 235 235 235 225 223 227 224 222 222 220 221 228 222 207 211 225
168 172 169 169 168 179 177 170 189 3 22 23 315 207 204 216 216 206 199 197 188 164 176 218 230 235 235 233 230 225 227 229 224 219 224 225 225 224 222 225 220 220 229
153 169 178 187 186 189 188 190 183 183 236 321 328 274 252 247 230 198 174 142 180 199 220 229 234 236 233 231 229 226 226 223 218 225 226 226 223 223 226 230 227 227 231
154 181 185 191 193 189 178 172 176 183 192 220 274 300 282 274 284 220 157 181 217 226 229 238 242 242 241 233 230 225 217 217 221 222 226 230 229 224 231 235 234 235 230
181 215 213 186 188 176 160 166 178 188 199 213 226 232 233 141 276 261 225 231 235 243 242 242 252 251 244 238 232 228 222 225 225 226 228 229 231 228 232 234 232 233 231
178 212 213 172 171 175 175 184 190 191 203 218 236 237 207 196 222 234 233 234 234 239 246 248 250 249 245 242 237 231 226 231 229 229 232 232 231 234 235 234 235 234 233
157 181 177 179 177 183 190 191 184 187 197 213 253 269 243 231 235 245 244 245 241 235 231 231 241 241 231 228 225 222 226 235 237 238 237 237 237 235 232 233 238 242 235
121 130 132 159 161 152 142 139 150 157 181 213 220 232 238 252 257 253 250 251 250 245 239 231 237 257 260 247 231 218 221 231 235 233 235 236 235 232 228 229 235 241 241
96 100 102 99 115 120 118 111 116 118 112 85 356 326 275 268 273 271 272 273 271 270 263 248 236 242 252 259 255 241 236 238 233 230 229 236 239 235 230 234 238 243 243
94 101 112 116 116 112 102 95 80 76 72 67 45 15 357 338 324 314 309 307 297 290 288 277 259 248 248 248 252 258 258 247 239 236 230 227 231 235 234 234 238 242 239
82 84 83 87 90 94 95 87 78 82 76 54 27 3 0 354 333 324 324 325 321 322 317 307 293 284 273 265 262 259 257 251 247 242 230 224 226 233 235 237 239 237 237